Tracking 23764 objects as of 17-Oct-2021
HD Live streaming from Space Station
objects crossing your sky now

IRIDIUM 33 DEB

Track IRIDIUM 33 DEB now!
10-day predictions


NORAD ID: 35079
Int'l Code: 1997-051PE
Perigee: 720.9 km
Apogee: 932.5 km
Inclination: 86.4 °
Period: 101.3 minutes
Semi major axis: 7197 km
RCS: 0.0003 m2 (small)
Launch date: September 14, 1997
Source: United States (US)
Launch site: TYURATAM MISSILE AND SPACE COMPLEX (TTMTR)

Note: This is SATELLITE DEBRIS
aabbcc
Your satellite tracking list
Your tracking list is empty




NASA's NSSDC Master Catalog

Two Line Element Set (TLE):
1 35079U 97051PE  21289.17991177  .00002031  00000-0  82160-3 0  9996
2 35079  86.4346  77.3799 0146973 336.9048  22.5577 14.21715825645247
Source of the keplerian elements: AFSPC